Regional Weather Roundup
Issued by NWS

Home | Current Version | Previous Version | Graphics & Text | Print | Product List | Glossary On
Versions: 1 2 3 4 5 6 7 8 9 10 11 12 13 14 15 16 17 18 19 20 21 22 23 24 25 26 27 28 29 30 31 32 33 34 35 36 37 38 39 40 41 42 43 44 45 46 47 48 49 50
000
ASUS45 KTFX 101210
RWRMT
MONTANA REGIONAL WEATHER ROUNDUP
NATIONAL WEATHER SERVICE GREAT FALLS MT
500 AM MST SUN DEC 10 2017

NOTE: "FAIR" INDICATES FEW OR NO CLOUDS BELOW 12000 FEET WITH NO
SIGNIFICANT WEATHER AND/OR OBSTRUCTIONS TO VISIBILITY.

MTZ001>007-043-101300-
WEST OF THE DIVIDE

CITY           SKY/WX    TMP DP  RH WIND       PRES   REMARKS
KALISPELL      CLOUDY    24  20  84 CALM      30.63F
MISSOULA       CLOUDY    19  17  92 S3        30.66F FOG
BUTTE          FAIR       5  -1  76 CALM      30.54S
MULLAN PASS    FAIR      37   6  27 SW7       30.49F WCI  32
ANACONDA         N/A     10   7  85 CALM      30.54F
DEER LODGE       N/A      7   3  85 CALM      30.57F
EUREKA           N/A    N/A N/A N/A MISG      30.63F
HAMILTON         N/A     14  10  85 CALM      30.64R VSB 1/4
LIBBY            N/A     27  21  80 CALM      30.63S
PLAINS           N/A     26  18  72 E5        30.61F
RONAN            N/A     24  20  85 S3        30.60F
$$

MTZ008-052>055-101300-
SOUTHWEST MONTANA

CITY           SKY/WX    TMP DP  RH WIND       PRES   REMARKS
BOZEMAN        FAIR      10   6  84 S3        30.50F
DILLON         FAIR      17   8  67 SW8       30.54R WCI   7
W YELLOWSTONE  FOG       -2  -6  84 CALM      30.62F VSB 1/4
ENNIS          CLOUDY    21   9  58 S9        30.56F WCI  11
THREE FORKS      N/A      3  -2  80 CALM      30.44S
TWIN BRIDGES     N/A     17   5  59 CALM      30.46F
$$

MTZ009-010-012-014-046-048-049-054-101300-
EAST SLOPES AND CENTRAL MONTANA

CITY           SKY/WX    TMP DP  RH WIND       PRES   REMARKS
CUT BANK       FAIR      46   4  17 W28       30.26R
GREAT FALLS    FAIR      41   8  25 SW21      30.31S
MALMSTROM AFB  FAIR      40  11  30 SW21      30.30S
HELENA         FAIR      14  12  92 CALM      30.51S
BOWMANS CRNR   FAIR      35  10  35 S21       30.33S WCI  23
CHOTEAU          N/A     52  -2  11 W10G18    30.30S
RAYNESFORD     FAIR      49   4  16 SW24G30   30.30R
ULM            FAIR      35  11  36 S5        30.34S
$$

MTZ011-013-016-021-045-047-050-051-101300-
NORTH CENTRAL MONTANA

CITY           SKY/WX    TMP DP  RH WIND       PRES   REMARKS
HAVRE          FAIR      42  10  27 SW26      30.20F
LEWISTOWN      FAIR      32  13  45 SE5       30.28F
N BAR RANCH    FAIR      45   0  15 NW12      30.27S
CHINOOK          N/A     37  10  32 W8        30.20F WCI  31
DENTON         FAIR      46   5  18 MISG      30.22S
GRASS RANGE    FAIR      44   9  24 W15       30.21F
STANFORD       FAIR      41   6  23 W7        30.28F
WINIFRED       FAIR      42   7  23 W16       30.23F
$$

MTZ017>020-022>027-061-062-101300-
NORTHEAST MONTANA

CITY           SKY/WX    TMP DP  RH WIND       PRES   REMARKS
GLASGOW        FAIR      28  13  53 NW7       30.16F WCI  21
GLENDIVE       FAIR      39  14  36 NW17      30.16  WCI  30
JORDAN           N/A     35  12  38 W13       30.19F WCI  26
SIDNEY         FAIR      42  17  36 W17       30.10S
WOLF POINT     FAIR      31  14  49 W14       30.15F WCI  21
MALTA          CLEAR     28  12  50 CALM      30.18S
PLENTYWOOD       N/A     34  19  55 W10       30.07S WCI  26
POPLAR           N/A     34  12  40 W16G22    30.14F WCI  23
SCOBEY           N/A     35  13  40 W3        30.08F
$$

MTZ028>42-056>058-101300-
SOUTHCENTRAL AND SOUTHEAST MONTANA

CITY           SKY/WX    TMP DP  RH WIND       PRES   REMARKS
BAKER          FAIR      30  16  56 W7        30.20R WCI  23
BILLINGS       FAIR      37  15  40 SW21      30.31F WCI  26
LIVINGSTON     FAIR      42  10  27 SW31G37   30.40F
MILES CITY     FAIR      36  14  40 W15       30.23F WCI  27
BIG TIMBER     CLEAR     39   9  28 W35G44    30.35  WCI  27
EKALAKA          N/A     37   7  29 SW10      30.17F WCI  30
FORSYTH          N/A     37  10  32 W8        30.25S WCI  31
HARLOWTON      FAIR      42   8  25 NW33      30.32S
LAUREL           N/A     28  16  59 SW6       30.34F WCI  22
$$

REGIONAL REPORTS...DAKOTAS

CITY           SKY/WX    TMP DP  RH WIND       PRES   REMARKS
WILLISTON      CLOUDY    38  19  46 E6        30.08S
MINOT          FAIR      31  23  72 SW8       29.99F WCI  23
DICKINSON      FAIR      32  18  56 W17       30.07S WCI  21
BEACH          FAIR      32  14  47 W14       30.17S WCI  22
CROSBY         FAIR      32  21  64 W12       30.05S WCI  23
TIOGA          FAIR      28  19  69 NW14      30.06R WCI  17
BISMARCK       FAIR      36  24  62 W12       30.06R WCI  28
GRAND FORKS    MOCLDY    19  17  92 NW7       30.01R WCI  10
FARGO          FAIR      22  18  85 NW10      29.99R WCI  11
BUFFALO SD       N/A     39  16  39 W22       30.11S WCI  29
RAPID CITY     FAIR      45   6  20 NW16      30.20R
$$

REGIONAL REPORTS...WYOMING/IDAHO/WASHINGTON

CITY           SKY/WX    TMP DP  RH WIND       PRES   REMARKS
GILLETTE       FAIR      33  11  39 W15       30.31S WCI  23
SHERIDAN       FAIR      24  11  57 S3        30.31F
BUFFALO WY     FAIR      39  -2  17 W7        30.34S
CODY           FAIR      26  13  57 CALM      30.40R
YELLOWSTONE LA   N/A      0  -3  87 CALM      30.60F
IDAHO FALLS    FAIR       7   4  87 N6        30.65S WCI  -3
SALMON         FLURRIES  16  13  88 E6        30.78S WCI   7
BOISE          CLOUDY    26  20  77 SE6       30.73S WCI  19
SPOKANE        CLOUDY    27  24  89 NE5       30.63F
$$

REGIONAL REPORTS...ALBERTA

CITY           SKY/WX    TMP DP  RH WIND       PRES   REMARKS
EDMONTON       MOCLDY    37  19  48 W5        30.08R
CALGARY        CLOUDY    55  -2   9 W14G21    30.15F
LETHBRIDGE     CLEAR     48   7  18 W22G35    30.19S
MEDICINE HAT   CLEAR     30  16  55 SW6       30.16S WCI  24
$$

REGIONAL REPORTS...SASKATCHEWAN

CITY           SKY/WX    TMP DP  RH WIND       PRES   REMARKS
SWIFT CURRENT  MOCLDY    36  16  44 W15G22    30.09F WCI  26
REGINA         MOCLDY    30  23  74 W9        30.02S WCI  22
SASKATOON      PTCLDY    27  21  80 W6        30.01F WCI  20
$$



USA.gov is the U.S. government's official web portal to all federal, state and local government web resources and services.